This is the latest recevied weather packets stored in our database for station/object HB9TJM-8. If no packets are shown the sender has not sent any weather packets the latest 10 day(s).
| Time | Temp. | Humidity | Pressure | Rain* | Wind** | Luminosity | Snow |
|---|---|---|---|---|---|---|---|
| 1777345082 | 11.67° C | 54% | 1016.4 hPa | 0 mm | - | 0 W/m² | - |
| 1777345082 | 11.67° C | 54% | 1016.4 hPa | 0 mm | - | 0 W/m² | - |
| 1777344774 | 11.67° C | 53% | 1016.8 hPa | 0 mm | - | 0 W/m² | - |
| 1777344774 | 11.67° C | 53% | 1016.8 hPa | 0 mm | - | 0 W/m² | - |
| 1777344467 | 11.67° C | 51% | 1016.8 hPa | 0 mm | - | 0 W/m² | - |
| 1777344467 | 11.67° C | 51% | 1016.8 hPa | 0 mm | - | 0 W/m² | - |
| 1777343852 | 11.67° C | 53% | 1016.9 hPa | 0 mm | - | 0 W/m² | - |
| 1777343851 | 11.67° C | 53% | 1016.9 hPa | 0 mm | - | 0 W/m² | - |
| 1777343544 | 11.67° C | 53% | 1017.1 hPa | 0 mm | - | 0 W/m² | - |
| 1777343544 | 11.67° C | 53% | 1017.1 hPa | 0 mm | - | 0 W/m² | - |
| 1777343237 | 11.67° C | 53% | 1016.3 hPa | 0 mm | - | 0 W/m² | - |
| 1777343236 | 11.67° C | 53% | 1016.3 hPa | 0 mm | - | 0 W/m² | - |
| 1777342929 | 11.67° C | 54% | 1017 hPa | 0 mm | - | 0 W/m² | - |
| 1777342622 | 11.67° C | 53% | 1017.1 hPa | 0 mm | - | 0 W/m² | - |
| 1777342621 | 11.67° C | 53% | 1017.1 hPa | 0 mm | - | 0 W/m² | - |
| 1777342314 | 12.22° C | 50% | 1016.9 hPa | 0 mm | - | 0 W/m² | - |
| 1777342314 | 12.22° C | 50% | 1016.9 hPa | 0 mm | - | 0 W/m² | - |
| 1777342007 | 11.67° C | 51% | 1017.2 hPa | 0 mm | - | 0 W/m² | - |
| 1777342006 | 11.67° C | 51% | 1017.2 hPa | 0 mm | - | 0 W/m² | - |
| 1777341699 | 12.22° C | 51% | 1017.3 hPa | 0 mm | - | 0 W/m² | - |
| 1777341392 | 11.67° C | 53% | 1017 hPa | 0 mm | - | 0 W/m² | - |
| 1777341391 | 11.67° C | 53% | 1017 hPa | 0 mm | - | 0 W/m² | - |
| 1777341084 | 12.22° C | 51% | 1016.7 hPa | 0 mm | - | 0 W/m² | - |
| 1777341083 | 12.22° C | 51% | 1016.7 hPa | 0 mm | - | 0 W/m² | - |
| 1777340776 | 12.22° C | 49% | 1016.8 hPa | 0 mm | - | 0 W/m² | - |
* Rain latest hour (hover to see other rain measurements)
** Current wind speed in m/s (hover to see current wind gust speed)